{"data":{"norad_id":66651,"intl_designator":"2025-274B","name":"2025-274B","alt_names":[],"object_type":"PAYLOAD","status":"ACTIVE","operator":null,"country":"SKOR","launch_date":"2025-11-26","launch_site_code":"NSC","launch_vehicle":null,"mission":null,"orbit_class":"UNKNOWN","rcs_meters":null,"size_class":null,"mass_kg":null,"dimensions":null,"purposes":[],"wikipedia_slug":null,"has_3d_model":false,"image_url":null,"decayed_at":null,"tle_current":{"epoch":"2026-05-25T01:37:01.313184Z","epoch_age_seconds":70000,"freshness":"FRESH","line1":"1 66651U 25274B   26145.06737631  .00002525  00000+0  24749-3 0  9997","line2":"2 66651  97.7470  74.5453 0013695  71.5940 288.6767 14.93072011 26761","mean_motion":14.93072011,"eccentricity":0.0013695,"inclination_deg":97.747,"raan_deg":74.5453,"arg_perigee_deg":71.594,"mean_anomaly_deg":288.6767,"bstar":0.00024749,"rev_number":2676,"period_min":96.445448671665,"perigee_km":578.82286438471,"apogee_km":597.90410921806,"semimajor_km":6966.5004868014,"source":"CELESTRAK","updated_at":"2026-05-25T13:38:06.379637Z"}}}